Home > Weather > Bahawalpur > Past weeks

Flag for Pakistan Weather for the Past 2 Weeks in Bahawalpur, Pakistan

Now
88 °F

Scattered clouds.


Feels Like: 87 °F
Forecast: 84 / 103 °F
Wind: No wind

Location: Multan Airport

Current Time: May 3, 2016 at 8:15:54 AM

Latest Report: May 3, 2016 at 6:55 AM


Visibility: 2 mi

Pressure: 29.62 "Hg

Humidity: 35%

Dew Point: 57 °F

Location of BahawalpurLocation

Historic Weather in Bahawalpur — Graph

°F

Bahawalpur Temperature Yesterday

Maximum temperature yesterday: 109 °F (at 3:00 PM)
Minimum temperature yesterday: 82 °F (at 5:00 AM)
Average temperature yesterday: 98 °F

High & Low Weather Summary for the Past Weeks

 TemperatureHumidityPressure
High111 °F (May 1, 2:55 PM)78% (Apr 20, 5:55 AM)29.92 "Hg (Apr 20, 5:55 AM)
Low68 °F (Apr 23, 6:55 AM)10% (Apr 23, 3:55 PM)29.50 "Hg (May 2, 4:00 PM)
Average89 °F36%29.68 "Hg
* Reported Apr 18 5:55 AM — May 3 5:55 AM, Bahawalpur, Weather by CustomWeather, © 2016

Note: Actual official high and low records may vary slightly from our data, if they occured in-between our weather recording intervals... More about our weather records

Advertising

Bahawalpur Weather History for the Previous 24 Hours

Scroll right to see more
 ConditionsComfort  
Time TempWeatherWind HumidityBarometerVisibility
5:55 AM
Tue, May 3
90 °FBroken clouds.7 mph31%29.62 "Hg2 mi
4:55 AM90 °FThunderstorms. Mostly cloudy.16 mph31%29.62 "Hg2 mi
1:55 AM90 °FThunderstorms. Mostly cloudy.14 mph31%29.59 "Hg2 mi
1:03 AM90 °FDrizzle. Mostly cloudy.No wind31%29.59 "Hg2 mi
11:55 PM
Mon, May 2
93 °FThundershowers. Partly cloudy.No wind26%29.56 "Hg2 mi
9:55 PM95 °FPassing clouds.5 mph25%29.56 "Hg2 mi
8:55 PM97 °FPassing clouds.7 mph22%29.56 "Hg2 mi
7:55 PM97 °FMostly cloudy.12 mph25%29.53 "Hg1 mi
5:55 PM104 °FScattered clouds.No wind23%29.50 "Hg2 mi
4:55 PM108 °FScattered clouds.5 mph19%29.50 "Hg2 mi
4:00 PM109 °FScattered clouds.7 mph17%29.50 "Hg2 mi
3:00 PM109 °FScattered clouds.12 mph19%29.53 "Hg2 mi
1:55 PM104 °FScattered clouds.7 mph26%29.56 "Hg2 mi
12:55 PM102 °FBroken clouds.7 mph27%29.56 "Hg2 mi
11:55 AM100 °FScattered clouds.5 mph27%29.59 "Hg2 mi
11:00 AM97 °FHaze.5 mph30%29.59 "Hg2 mi
9:55 AM95 °FScattered clouds.7 mph30%29.59 "Hg1 mi
Weather by CustomWeather, © 2016

See weather overviewHow to use our weather pages